Weather History for Plattsburgh, NY

Change the Weather History Date:

Monday, March 10, 2014

  Actual Average Record
Temperature  
Mean Temperature 29 °F 29 °F  
Max Temperature 37 °F 38 °F 56 °F (1977)
Min Temperature 21 °F 19 °F -11 °F (1984)
Degree Days  
Heating Degree Days 36 36  
Month to date heating degree days 500 378  
Since 1 July heating degree days 6343 5990  
Cooling Degree Days 0 0  
Month to date cooling degree days 0 0  
Year to date cooling degree days 0 0  
Moisture  
Dew Point 23 °F    
Average Humidity 82    
Maximum Humidity 100    
Minimum Humidity 64    
Precipitation  
Precipitation 0.06 in - 0.63 in (1983)
Month to date precipitation 0.06  
Year to date precipitation 1.32  
Sea Level Pressure  
Sea Level Pressure 29.69 in    
Wind  
Wind Speed 7 mph (SSE)    
Max Wind Speed 14 mph    
Max Gust Speed 21 mph    
Visibility 7 miles    
Events Snow    
T = Trace of Precipitation, MM = Missing Value Source: NWS Daily Summary

Daily Weather History Graph

Daily Weather History Graph

Search for Another Location

Airport:

Trip Planner

Search our weather history database for the weather conditions in past years. The results will help you decide how hot, cold, wet, or windy it might be!

Date:

Astronomy

Mar. 10, 2014 Rise Set
Actual Time 7:15 AM EDT 6:53 PM EDT
Civil Twilight 6:46 AM EDT 7:22 PM EDT
Nautical Twilight 6:12 AM EDT 7:56 PM EDT
Astronomical Twilight 5:38 AM EDT 8:30 PM EDT
Moon 1:25 PM EDT (3/10) 3:35 AM EDT (3/10)
Length of Visible Light 12h 36m
Length of Day
11h 38m
Waxing Gibbous, 70% of the Moon is Illuminated
Mar 10
Waxing Gibbous
Mar 16
Full
Mar 23
Last Quarter
Mar 30
New
Apr 7
First Quarter

Hourly Weather History & Observations

Time (EDT) Temp. Windchill Dew Point Humidity Pressure Visibility Wind Dir Wind Speed Gust Speed Precip Events Conditions
12:13 AM 24.1 °F 17.0 °F 19.0 °F 81% 29.83 in 2.5 mi South 5.8 mph - 0.00 in Snow Light Snow
12:21 AM 24.1 °F 18.2 °F 19.0 °F 81% 29.83 in 2.5 mi South 4.6 mph - 0.00 in Snow Light Snow
12:31 AM 23.0 °F 13.9 °F 18.0 °F 81% 29.83 in 2.5 mi SSE 8.1 mph - 0.00 in Snow Light Snow
12:39 AM 21.9 °F 12.5 °F 18.0 °F 85% 29.83 in 2.0 mi SSE 8.1 mph - 0.00 in Snow Light Snow
12:53 AM 21.9 °F 12.5 °F 18.0 °F 85% 29.84 in 2.0 mi SSE 8.1 mph - 0.00 in Snow Light Snow
1:53 AM 21.0 °F 11.4 °F 18.0 °F 88% 29.83 in 1.8 mi SSE 8.1 mph - 0.00 in Snow Light Snow
2:53 AM 21.9 °F 14.5 °F 19.0 °F 89% 29.80 in 1.8 mi South 5.8 mph - 0.00 in Snow Light Snow
3:00 AM 21.9 °F 13.4 °F 19.0 °F 89% 29.78 in 2.5 mi South 6.9 mph - 0.00 in Snow Light Snow
3:19 AM 21.0 °F 14.6 °F 19.0 °F 92% 29.77 in 5.0 mi South 4.6 mph - 0.00 in Snow Light Snow
3:53 AM 21.0 °F 16.2 °F 19.9 °F 96% 29.77 in 6.0 mi South 3.5 mph - 0.00 in   Overcast
4:53 AM 21.9 °F 15.7 °F 19.9 °F 92% 29.75 in 10.0 mi South 4.6 mph - N/A   Overcast
5:53 AM 21.9 °F 17.2 °F 19.9 °F 92% 29.74 in 10.0 mi South 3.5 mph - N/A   Overcast
6:53 AM 21.9 °F - 19.9 °F 92% 29.75 in 10.0 mi Calm Calm - N/A   Overcast
7:53 AM 23.0 °F 18.4 °F 19.9 °F 88% 29.75 in 10.0 mi SSE 3.5 mph - N/A   Overcast
8:28 AM 24.1 °F - 21.0 °F 88% 29.74 in 10.0 mi Calm Calm - N/A   Overcast
8:53 AM 24.1 °F 19.7 °F 21.0 °F 88% 29.75 in 10.0 mi South 3.5 mph - N/A   Overcast
9:19 AM 25.0 °F 20.7 °F 21.0 °F 85% 29.74 in 10.0 mi SSE 3.5 mph - N/A   Overcast
9:53 AM 26.1 °F 20.5 °F 21.9 °F 84% 29.75 in 10.0 mi SE 4.6 mph - N/A   Overcast
10:17 AM 26.1 °F - 21.9 °F 84% 29.74 in 10.0 mi Calm Calm - N/A   Overcast
10:53 AM 27.0 °F 18.7 °F 23.0 °F 85% 29.75 in 10.0 mi SE 8.1 mph - N/A   Overcast
11:53 AM 28.0 °F 18.6 °F 23.0 °F 81% 29.74 in 10.0 mi SE 10.4 mph - N/A   Overcast
12:53 PM 28.9 °F 21.1 °F 24.1 °F 82% 29.73 in 10.0 mi SSE 8.1 mph - N/A   Overcast
1:53 PM 30.0 °F 21.7 °F 24.1 °F 79% 29.70 in 10.0 mi SE 9.2 mph - N/A   Overcast
2:53 PM 32.0 °F 24.2 °F 25.0 °F 75% 29.68 in 10.0 mi SSE 9.2 mph - N/A   Overcast
3:53 PM 34.0 °F 25.0 °F 26.1 °F 73% 29.64 in 10.0 mi SSE 12.7 mph - N/A   Overcast
4:53 PM 35.1 °F 29.3 °F 26.1 °F 70% 29.63 in 10.0 mi SE 6.9 mph - N/A   Overcast
5:53 PM 35.1 °F 29.3 °F 26.1 °F 70% 29.61 in 10.0 mi SSE 6.9 mph - N/A   Overcast
6:53 PM 34.0 °F 28.8 °F 26.1 °F 73% 29.59 in 10.0 mi SSE 5.8 mph - N/A   Overcast
7:53 PM 36.0 °F 31.1 °F 25.0 °F 64% 29.57 in 10.0 mi South 5.8 mph - N/A   Overcast
8:53 PM 37.0 °F 30.4 °F 26.1 °F 65% 29.54 in 10.0 mi South 9.2 mph - N/A   Overcast
9:53 PM 35.1 °F 26.4 °F 30.0 °F 82% 29.52 in 8.0 mi South 12.7 mph - 0.00 in   Overcast
10:53 PM 33.1 °F 26.1 °F 30.9 °F 92% 29.49 in 2.5 mi SSE 8.1 mph - 0.01 in Snow Light Snow
11:04 PM 33.1 °F 26.9 °F 30.9 °F 92% 29.48 in 1.5 mi SSE 6.9 mph - 0.01 in Snow Light Snow
11:30 PM 32.0 °F 24.8 °F 30.9 °F 96% 29.46 in 0.8 mi SSE 8.1 mph - 0.03 in Snow Light Snow
11:42 PM 32.0 °F 25.6 °F 32.0 °F 100% 29.45 in 1.0 mi SSE 6.9 mph - 0.04 in Snow Light Snow
11:53 PM 32.0 °F 24.8 °F 32.0 °F 100% 29.47 in 1.2 mi South 8.1 mph - 0.05 in Snow Light Snow